RH
10 9 10 12 14 16 15 15 14 15 15 16 17 18 18 18 17 17 16 16 16 17 17 17 18 19 21 22 19 17 16 19 22 21 25 28 24 20 18 17 16 15 14 14 17 16 13 11 10 10 10 12 15 18 20 17 18 24 26 28 28 24 21 21 18 20 23 27 38 36 32 34 31 35 34 31 35 37 39 38 32 25 24 22 21 24 24 26
9 10 12 15 16 17 17 17 17 17 17 18 18 18 18 17 17 16 16 16 16 17 17 18 18 18 20 21 20 17 16 18 19 26 31 24 19 18 17 16 15 14 12 15 18 14 11 11 10 10 9 13 16 17 21 18 16 24 28 26 27 26 22 20 20 23 23 27 38 35 30 28 28 33 30 30 34 35 39 38 36 33 28 22 20 23 25 26
11 13 14 16 17 18 18 18 18 18 19 18 18 18 17 17 16 16 17 18 18 18 18 18 18 19 20 20 20 17 18 21 16 23 27 19 17 17 15 16 15 13 12 15 19 15 12 12 11 10 10 13 14 16 20 22 22 22 23 24 25 22 18 18 22 25 25 26 31 31 29 26 25 27 27 32 33 32 37 35 35 37 33 27 22 22 25 27
13 14 15 17 17 18 19 19 19 19 19 18 17 17 17 17 17 19 20 20 19 18 18 18 19 19 18 18 18 17 22 25 19 20 21 16 16 15 14 15 14 14 13 15 18 16 13 12 11 10 14 18 16 16 18 21 27 24 21 26 23 18 17 19 23 24 25 27 26 26 30 28 24 24 26 32 35 34 32 31 34 34 30 28 25 22 23 26
14 15 16 17 18 18 19 19 19 18 17 17 17 17 17 18 20 22 23 21 18 18 19 18 20 19 18 17 16 19 28 31 25 21 19 17 16 14 14 14 14 15 12 14 18 15 12 11 10 11 17 20 18 19 20 17 23 28 25 25 22 20 22 21 24 28 26 26 25 25 29 27 24 25 27 30 37 34 28 31 34 32 29 25 24 22 22 24
15 16 16 17 18 19 19 18 17 17 16 16 17 17 18 19 21 23 23 21 18 19 19 19 20 18 16 14 14 22 30 30 26 21 19 18 16 14 15 15 15 15 13 16 17 13 10 9 10 15 18 19 19 19 22 17 19 31 27 20 21 23 25 23 26 32 28 25 26 27 27 24 25 28 28 30 34 31 29 33 33 33 31 26 25 24 23 24
15 16 16 18 18 18 17 16 16 16 16 17 17 18 18 20 21 22 22 20 18 18 19 20 19 18 17 17 21 25 24 22 21 21 21 17 16 16 16 17 15 13 16 18 16 10 9 9 9 14 18 22 23 22 27 22 20 33 31 21 21 22 24 25 27 31 29 27 26 27 28 25 28 30 29 30 30 29 30 32 33 34 32 31 34 34 33 31
15 16 17 18 17 17 16 16 16 16 16 16 17 18 19 20 21 21 20 18 18 18 18 18 17 19 19 23 32 26 18 21 21 22 22 16 15 16 16 19 17 15 18 17 12 10 10 10 12 15 21 25 25 29 35 31 30 37 33 24 20 21 23 25 27 29 29 27 26 28 29 28 27 27 28 27 26 25 25 27 30 32 33 37 39 38 39 37
16 18 17 17 16 16 16 15 16 15 15 16 17 18 19 20 20 20 20 17 17 16 17 16 15 17 15 23 33 24 19 23 22 23 21 16 14 14 17 20 20 17 16 14 11 12 11 12 14 14 21 25 24 32 38 39 43 40 33 27 21 21 24 25 25 26 27 25 25 27 28 26 23 24 26 24 22 21 21 23 25 26 28 33 36 37 37 35
17 17 16 16 15 16 15 15 15 15 16 16 17 18 18 19 18 19 20 18 17 16 17 15 14 16 16 26 33 24 21 23 22 23 22 18 16 16 18 18 19 16 13 13 14 14 11 12 13 11 19 26 28 36 38 42 45 35 31 32 27 25 23 24 25 23 25 24 24 28 28 25 21 25 29 23 20 21 21 22 23 24 23 23 28 34 35 33
17 16 15 15 16 15 15 15 15 15 16 16 17 17 17 18 18 19 19 18 17 16 17 17 18 21 21 24 26 21 21 23 22 23 22 21 18 19 20 18 18 16 14 13 17 19 18 17 15 18 26 27 31 38 37 38 37 29 29 34 32 27 22 23 25 24 25 24 24 27 28 27 24 29 31 24 20 19 20 21 21 22 21 20 21 25 30 30
16 14 15 16 15 14 15 16 16 15 16 16 17 17 17 18 18 19 18 18 18 17 19 20 21 25 24 21 21 22 22 23 23 22 22 21 19 20 20 19 19 18 16 14 18 21 21 21 21 30 35 30 34 40 40 37 31 26 29 38 37 29 27 24 23 24 25 25 24 28 34 33 30 31 26 22 22 20 21 21 20 20 20 21 21 21 24 25
15 15 16 15 13 14 15 16 15 15 16 17 17 17 17 17 18 19 19 19 19 18 19 19 20 23 26 26 23 21 21 22 23 21 22 21 19 18 18 19 18 19 19 18 20 20 19 21 25 35 36 35 42 42 40 34 28 31 32 38 40 36 35 25 21 24 26 28 24 29 39 30 24 25 21 20 21 20 22 22 21 21 20 21 22 22 22 21
15 15 15 14 13 14 16 15 15 16 16 16 16 16 16 16 18 19 18 19 19 20 19 21 24 25 26 27 23 20 21 21 21 20 21 22 20 17 17 19 18 19 20 21 23 22 22 21 24 34 34 35 42 39 37 31 29 37 35 36 40 40 39 26 22 26 27 29 23 32 44 32 21 20 18 18 18 19 21 21 22 22 20 20 21 22 22 21
14 15 15 14 13 15 17 15 15 15 15 16 16 17 18 18 19 19 19 19 20 20 21 26 27 26 28 26 20 20 21 20 20 20 20 21 21 19 18 18 19 19 18 19 21 22 22 23 24 31 33 35 43 45 39 33 32 36 37 41 37 34 36 29 24 25 26 27 24 36 48 36 24 18 16 19 19 19 20 20 21 20 19 18 18 19 20 20
14 15 14 12 13 17 16 14 15 15 15 17 17 18 18 18 18 18 19 18 19 21 23 29 25 23 29 25 19 20 20 20 21 20 20 22 21 20 19 18 18 18 18 18 19 20 20 23 29 31 36 37 41 45 41 39 37 33 37 41 33 28 33 32 30 28 26 29 30 37 43 35 25 18 16 19 20 21 21 21 19 18 18 16 16 17 18 20
14 15 13 12 14 17 16 15 16 16 17 18 17 18 18 20 20 20 21 20 21 23 22 25 22 22 26 22 19 19 19 20 20 20 20 21 21 21 20 17 17 16 17 17 17 20 19 24 34 36 36 33 32 36 41 47 42 36 40 39 31 29 34 35 37 37 33 36 38 35 38 35 27 22 19 19 20 21 22 21 19 19 18 17 16 17 17 18
14 14 12 12 15 17 18 19 19 19 18 18 18 19 19 20 20 22 26 22 23 24 22 23 24 30 31 21 19 19 18 19 20 20 19 20 21 20 19 17 17 16 16 19 18 20 21 27 37 36 32 33 38 44 47 50 46 47 51 47 42 38 37 33 35 44 41 43 45 40 42 38 29 26 23 20 19 20 20 20 20 20 18 18 17 17 17 17
13 12 11 14 18 17 19 21 20 19 18 18 17 17 19 20 19 21 25 26 29 32 32 31 29 35 33 20 18 18 17 19 19 19 18 20 20 19 20 17 17 18 22 28 22 19 27 33 37 38 41 45 48 51 52 49 49 52 51 53 56 50 43 32 35 50 47 46 51 45 44 38 30 27 21 19 18 18 19 17 17 19 19 19 17 17 17 18
12 10 11 16 19 18 20 20 19 19 19 21 21 20 23 26 25 22 26 30 33 33 34 34 27 25 23 17 17 17 18 19 17 17 17 20 21 21 19 15 20 24 28 37 33 29 35 40 45 47 50 51 46 47 50 49 50 53 55 57 56 53 47 32 38 54 47 47 50 40 38 33 26 24 19 18 18 17 19 18 18 17 18 20 19 19 19 19
11 9 13 19 18 18 19 17 18 18 17 22 26 30 33 38 38 31 30 33 31 29 28 28 22 18 18 17 18 20 20 18 14 15 17 21 21 22 23 22 28 28 25 36 42 40 39 43 51 50 46 48 48 48 51 53 54 55 59 57 50 48 42 34 46 54 43 48 49 37 36 33 26 25 22 22 21 20 19 18 19 16 16 20 21 22 22 21
9 9 15 18 17 18 17 16 17 15 16 21 25 31 33 37 37 30 30 31 30 29 26 23 19 16 19 17 18 21 20 20 19 14 17 21 19 25 35 32 29 27 26 36 43 40 41 48 51 44 43 49 51 52 53 56 59 59 57 55 52 46 38 41 52 50 44 53 51 38 40 38 32 31 27 26 23 20 20 19 22 21 18 18 20 23 23 22
7 10 16 18 17 18 16 16 19 20 27 27 25 31 31 27 23 23 31 31 29 31 27 26 22 17 18 16 17 21 19 23 26 18 16 22 22 29 39 37 33 29 29 42 46 38 42 48 46 42 45 51 52 52 53 55 58 59 54 50 50 46 42 45 47 44 46 52 48 44 50 46 39 37 29 25 26 23 26 28 30 32 29 27 29 30 27 25
8 11 17 18 17 17 17 17 20 26 30 23 22 28 26 22 19 22 34 31 28 32 26 25 23 18 20 18 19 24 23 24 24 18 18 24 28 31 35 41 43 34 33 48 49 44 49 46 42 48 50 50 52 50 50 53 51 48 49 49 46 46 49 46 41 43 42 45 52 52 50 39 33 34 22 19 29 28 28 30 29 32 33 33 35 34 30 27
8 12 17 17 17 19 18 17 20 27 28 20 20 24 21 22 20 19 32 31 26 30 29 27 22 16 18 19 21 29 32 27 21 19 21 26 31 35 37 40 42 40 46 53 45 42 52 46 43 53 51 46 51 50 46 49 48 42 46 53 48 46 52 48 45 51 44 42 53 53 47 35 23 23 19 18 25 24 28 31 27 26 29 33 34 29 26 23
8 13 17 16 17 16 15 20 22 26 33 27 20 21 21 23 20 18 35 37 26 28 31 28 22 21 23 20 22 35 41 31 21 21 23 25 32 39 42 37 38 48 56 55 44 42 48 46 47 51 47 45 50 51 44 44 48 45 47 55 52 49 55 53 51 59 53 42 43 45 49 47 32 24 23 25 25 21 27 31 25 23 25 32 33 24 20 20
9 14 16 15 17 15 19 27 18 20 41 38 20 19 22 23 20 23 39 38 25 26 29 24 21 23 26 23 23 33 36 28 24 25 25 26 31 40 44 41 41 49 54 49 39 42 49 47 47 49 47 46 48 47 42 42 44 46 53 58 54 52 54 53 55 62 57 47 44 41 44 53 50 35 23 23 26 21 21 23 20 18 19 25 25 20 23 23
9 15 16 16 16 15 23 25 14 25 43 33 17 18 24 23 22 31 42 33 21 23 26 26 23 18 23 28 27 28 28 29 29 26 24 27 30 36 42 44 43 45 52 48 30 36 52 49 47 49 44 43 45 41 40 43 42 47 60 64 57 57 55 52 59 63 56 55 55 46 45 57 57 36 16 16 24 22 19 20 20 19 19 21 21 22 26 28
9 15 16 17 17 15 20 19 21 37 35 19 18 21 22 24 27 38 39 24 20 24 25 26 22 18 26 33 31 30 31 32 30 24 27 31 28 33 44 48 46 44 50 52 37 37 51 51 50 50 42 43 46 40 40 45 45 50 60 62 58 60 60 58 62 61 55 59 61 50 48 55 48 28 15 18 23 24 25 26 24 24 23 21 24 27 29 32
9 16 17 18 18 14 17 19 21 28 23 18 21 20 23 31 36 38 30 20 25 31 29 28 26 27 34 36 32 31 34 33 31 30 33 34 26 28 43 50 47 43 45 52 50 48 56 55 51 54 51 50 47 41 43 48 49 54 58 55 51 52 60 63 58 55 54 55 53 46 43 45 41 27 18 21 26 28 32 32 29 28 26 25 27 29 32 35
11 18 18 19 21 16 24 31 21 16 19 20 19 24 35 41 38 32 26 26 32 34 32 32 34 36 39 39 32 30 37 36 34 35 32 30 29 26 32 38 43 42 35 36 43 49 58 54 47 54 55 49 48 47 53 59 58 59 57 51 44 42 48 52 48 48 50 48 45 41 37 36 37 29 20 22 26 27 30 31 32 31 30 32 31 30 35 37
15 20 17 20 21 15 25 33 20 16 21 18 21 35 39 36 35 33 29 31 35 33 32 36 39 40 42 41 31 32 40 34 31 38 36 32 36 40 38 37 44 44 30 28 33 35 45 51 54 59 53 47 48 45 51 62 58 52 49 49 49 46 43 42 41 41 40 38 36 36 38 36 32 27 21 21 21 21 25 29 32 34 34 37 35 31 35 40
17 19 16 18 16 13 19 20 17 20 18 18 34 42 33 29 35 37 30 28 32 33 35 42 44 44 45 36 28 35 40 33 31 38 41 35 35 45 46 42 46 43 31 32 34 30 38 49 51 53 51 53 52 39 39 48 46 42 45 49 54 54 53 48 41 38 37 33 30 32 40 41 34 26 21 19 16 17 23 28 32 35 34 35 38 39 44 47
17 17 15 15 14 16 18 16 19 20 17 28 43 40 32 32 35 38 35 30 32 36 38 43 46 45 41 31 29 36 33 30 33 35 35 29 27 36 41 42 46 43 36 35 31 30 39 41 37 37 39 46 51 46 45 48 47 44 41 42 48 52 56 56 47 44 45 41 36 35 38 41 37 28 19 17 17 19 23 24 27 33 35 36 41 43 43 41
15 13 13 13 15 17 17 19 20 15 23 39 41 34 35 34 31 36 44 43 39 39 41 46 48 41 31 30 36 38 32 30 33 32 31 28 30 35 37 42 47 46 44 40 32 32 35 32 32 40 40 40 48 53 51 49 45 40 36 40 46 46 46 52 51 45 47 52 50 44 40 36 30 22 16 18 20 19 19 18 18 22 25 27 29 30 30 30
12 13 13 14 17 17 17 20 16 15 33 41 34 37 42 40 37 38 49 55 46 47 50 46 42 35 27 29 33 36 38 37 35 31 28 32 39 40 40 48 52 48 43 39 37 38 39 32 28 38 47 46 47 51 51 49 43 37 40 46 48 44 42 53 57 43 44 59 50 37 37 33 28 24 18 19 20 16 16 16 14 15 18 19 20 24 28 29
12 15 17 16 16 17 15 16 16 22 34 34 35 44 42 42 47 48 55 57 49 54 53 36 31 33 30 29 28 34 39 36 33 28 22 31 40 40 44 51 51 45 41 42 41 38 43 43 31 33 47 51 51 53 53 56 50 40 44 52 51 48 44 49 56 48 48 56 42 32 40 41 38 35 24 20 23 17 13 14 13 14 15 14 19 24 26 26
14 21 25 18 15 18 16 14 20 28 29 31 44 50 42 45 52 53 60 62 58 58 46 32 33 33 30 30 28 33 38 34 31 26 24 30 34 39 45 45 46 44 43 48 46 39 45 49 40 35 41 50 57 54 48 54 56 48 49 54 51 49 48 44 46 50 55 58 48 42 47 44 39 38 31 25 22 15 13 14 14 13 11 13 21 26 26 28
23 31 31 19 14 17 19 19 22 27 28 34 48 50 45 51 55 54 62 68 66 57 40 33 37 32 31 36 32 33 37 37 34 29 29 29 33 46 48 41 44 45 43 51 49 43 45 47 46 38 31 38 45 40 35 43 52 53 54 53 47 46 48 43 41 48 58 64 59 54 52 44 34 30 26 21 16 15 16 15 13 12 11 16 24 27 28 32
29 33 27 15 12 15 18 20 21 27 36 41 46 49 48 53 55 57 67 73 65 50 38 36 39 37 37 37 35 36 37 35 34 30 28 27 30 47 56 52 53 52 51 53 49 45 43 43 46 39 29 31 33 31 31 32 38 47 50 48 46 44 42 43 43 46 57 65 64 62 56 41 27 20 20 19 17 17 17 14 13 12 14 19 23 26 30 34
25 31 27 14 13 16 19 25 27 31 39 40 43 53 57 60 58 56 70 82 70 51 44 44 44 44 42 38 36 39 36 33 32 28 28 29 26 37 62 76 72 66 61 53 49 50 46 43 45 44 39 35 31 34 36 32 33 40 43 41 38 39 42 50 52 43 49 56 53 59 63 45 26 20 19 19 16 16 15 15 16 13 14 20 22 24 29 32
27 31 25 13 13 15 21 34 39 38 41 46 52 61 63 63 57 49 60 75 71 58 50 46 47 47 46 45 44 41 38 36 31 27 30 35 32 42 71 89 86 77 65 50 48 50 46 47 52 51 45 36 34 42 42 41 43 42 45 42 35 38 43 51 57 48 47 51 45 55 68 50 27 19 18 18 16 16 16 16 17 15 14 19 21 24 29 31
31 29 21 16 15 14 24 39 44 44 48 54 56 58 61 59 50 46 54 60 59 54 47 44 49 52 49 48 47 44 43 39 31 30 33 35 45 65 81 88 87 77 64 55 54 53 48 48 54 50 37 29 36 43 41 47 51 44 42 38 37 50 52 50 56 52 52 57 51 59 68 47 25 19 19 18 17 16 15 14 16 15 15 19 22 23 28 33
23 24 20 17 15 19 32 41 43 46 51 54 52 52 61 62 53 51 56 58 55 51 46 44 47 52 51 49 48 45 42 36 30 35 36 30 52 86 90 87 87 75 68 72 71 67 55 44 49 54 42 31 33 33 33 43 45 33 30 31 37 54 61 56 55 56 61 60 53 61 66 43 23 20 19 18 18 17 15 14 15 15 16 21 23 25 30 36
18 24 21 16 14 21 33 36 37 42 47 51 49 46 51 57 61 66 61 57 59 56 49 47 48 51 52 51 51 47 40 34 30 38 40 32 56 94 96 88 91 83 81 92 93 84 65 45 47 55 51 45 39 33 31 35 35 30 30 36 40 47 55 56 55 64 69 59 50 57 58 39 23 21 22 20 19 17 15 15 15 15 17 22 26 30 34 37
24 31 31 22 15 21 29 30 32 36 40 44 44 41 43 44 55 74 71 57 60 62 53 48 49 48 47 48 49 44 38 39 38 41 45 39 49 80 92 89 89 88 89 99 100 86 67 55 53 52 52 50 42 36 35 35 39 40 40 44 46 49 56 59 60 65 64 57 55 52 46 42 34 25 24 22 20 19 17 17 17 15 18 24 27 31 35 37
29 37 39 31 25 30 31 29 36 42 40 39 39 40 43 38 39 60 67 57 59 63 54 47 49 48 46 49 50 44 41 44 43 42 46 45 42 60 85 91 87 91 93 97 98 81 63 63 60 53 54 53 45 42 40 40 42 41 43 48 47 50 58 65 67 61 55 62 64 47 39 46 39 26 25 24 20 21 18 17 19 18 20 24 27 33 37 37
27 30 32 31 36 42 37 34 46 50 44 42 43 42 42 41 40 46 51 50 53 57 51 45 49 52 50 53 53 50 48 43 44 47 47 49 49 54 73 83 83 93 92 86 86 73 61 68 66 59 60 55 49 46 42 43 44 41 47 51 48 49 55 61 63 55 53 65 62 44 41 46 37 28 28 26 22 23 20 20 22 21 22 26 31 37 38 36
24 26 29 33 39 42 40 44 53 49 40 38 42 46 46 45 48 48 46 47 46 47 45 43 52 60 56 55 55 54 51 43 48 57 51 53 60 60 64 67 72 89 86 69 68 63 57 67 67 63 64 53 45 46 46 50 52 47 48 46 43 46 47 50 54 50 54 60 54 47 50 47 38 33 30 26 24 22 22 23 22 21 25 32 37 38 36 34
26 27 31 36 38 39 40 46 48 40 32 31 37 45 46 44 49 51 50 51 47 46 50 50 58 65 58 56 58 56 54 49 52 61 59 61 66 60 55 52 55 70 67 55 60 57 52 60 56 52 59 53 42 44 44 47 49 45 43 42 42 45 44 45 47 45 50 54 50 54 59 51 38 29 24 21 19 19 21 22 21 24 32 38 38 36 34 34
24 22 24 30 34 35 36 36 33 29 29 36 42 46 46 50 56 53 53 61 58 55 59 60 64 67 61 58 59 57 59 60 57 59 62 68 68 59 55 55 59 70 67 59 65 61 56 63 58 54 63 52 35 37 40 42 47 49 50 50 45 41 39 38 38 40 45 47 46 49 49 41 29 22 24 23 19 20 20 21 28 36 39 40 37 36 37 38
19 16 16 27 31 31 35 35 30 29 34 45 55 54 52 57 61 54 52 61 68 70 70 67 69 69 58 51 55 61 67 68 67 69 72 77 80 75 71 70 72 78 77 70 72 70 69 73 66 63 69 52 32 37 45 48 50 48 44 42 35 30 31 33 34 37 36 37 44 48 45 41 39 43 49 47 41 36 31 37 53 54 47 47 46 44 46 47
Wind_Speed
4 3 2 2 2 2 2 2 3 3 3 3 4 5 6 7 8 9 9 11 10 10 10 9 8 8 9 5 4 5 6 7 3 11 9 10 17 13 10 9 9 8 6 7 8 9 9 8 6 4 6 5 1 1 1 0 1 1 1 3 4 4 2 2 3 2 1 4 7 7 8 7 6 6 3 1 3 6 6 5 6 7 8 11 7 9 12 16
3 3 2 2 2 1 1 1 2 2 3 4 5 6 7 8 9 10 11 11 10 10 10 10 10 8 10 8 4 5 6 9 3 12 9 14 15 9 8 8 7 6 6 7 8 10 9 8 7 4 5 3 2 1 1 1 1 1 2 4 2 3 2 4 6 5 2 2 7 6 7 7 6 7 6 4 6 7 8 8 7 9 9 12 12 11 14 16
3 3 3 2 2 1 1 2 2 2 3 5 6 7 9 10 10 10 10 10 8 7 7 9 10 10 11 10 7 7 6 9 3 9 11 14 10 6 7 6 6 6 5 7 8 10 9 9 10 6 5 3 1 1 2 1 0 1 1 3 1 3 2 5 7 5 5 3 5 6 6 7 5 5 6 5 6 8 10 9 8 11 11 11 12 13 16 16
3 3 3 2 2 2 2 2 2 3 5 6 7 8 9 9 8 8 7 6 3 2 5 7 8 8 8 8 7 6 5 5 2 8 13 12 7 6 6 6 7 5 5 5 6 9 9 8 9 6 4 4 0 1 2 1 1 1 1 2 3 4 2 4 6 5 5 5 1 5 6 7 5 3 4 5 6 8 10 10 11 12 11 11 11 13 16 16
4 3 3 2 2 2 2 2 3 4 6 6 7 8 7 6 5 6 6 2 2 4 7 8 7 2 3 5 6 6 3 2 3 11 15 11 7 6 6 7 7 5 5 5 8 9 8 7 7 4 2 3 1 0 1 2 0 1 1 1 4 5 3 3 5 5 4 4 2 4 6 5 4 4 5 6 8 7 6 6 10 11 11 11 10 11 14 15
3 3 3 2 2 2 2 3 5 5 6 6 6 6 4 4 4 6 4 4 5 6 8 9 8 6 9 9 7 5 2 1 5 13 16 12 7 6 7 7 7 6 5 6 9 8 7 7 6 3 3 2 2 1 2 2 0 1 1 1 2 4 3 3 4 3 4 3 2 1 2 3 4 6 5 9 12 9 5 2 3 5 7 9 9 8 9 11
3 3 3 2 2 2 3 4 4 4 5 5 3 2 2 2 3 4 0 5 5 5 6 6 8 8 7 6 4 2 2 4 8 14 16 12 7 6 6 7 7 5 5 7 9 7 5 6 5 2 2 2 2 2 3 3 1 2 2 2 2 3 2 3 3 2 3 3 3 4 3 3 6 6 5 10 13 11 11 9 6 4 5 6 7 7 7 8
4 3 3 2 2 3 3 3 3 4 4 3 2 0 0 2 3 3 2 6 4 4 4 5 5 4 2 1 2 0 5 4 11 15 14 12 9 6 6 6 8 6 5 7 7 7 5 6 5 2 1 1 0 1 3 4 1 1 2 2 1 1 2 2 1 1 2 3 3 4 4 5 7 6 9 15 13 11 12 12 11 9 7 6 7 8 8 8
4 3 2 1 2 2 2 3 4 4 3 2 2 2 1 2 5 5 3 6 3 3 3 3 3 2 2 3 4 0 3 6 11 13 13 12 10 8 6 6 8 8 7 7 6 7 5 3 2 1 0 1 1 1 3 2 1 2 2 2 2 1 2 1 1 0 0 3 2 4 7 7 8 7 13 17 14 14 12 11 12 11 11 10 10 10 9 10
4 3 2 1 1 0 2 3 3 3 1 3 4 3 1 4 7 6 4 8 6 3 2 2 2 4 6 6 5 0 4 7 9 11 12 12 10 8 7 7 9 9 7 5 5 6 5 3 2 2 1 2 1 1 2 2 1 2 1 2 3 2 1 1 2 1 0 4 3 5 8 8 7 5 10 12 10 12 12 12 12 11 12 12 11 10 10 10
4 3 2 2 1 1 3 3 1 1 2 4 4 3 2 4 8 7 4 6 7 4 2 2 1 6 6 2 0 2 5 8 8 10 11 11 11 10 9 8 9 10 8 3 4 8 7 6 5 2 1 0 1 2 2 1 2 1 1 2 1 2 3 3 4 3 2 3 3 4 9 11 8 6 13 16 10 7 8 11 12 12 12 11 11 11 9 9
4 4 3 2 1 2 2 1 0 2 3 5 5 4 3 1 5 11 12 8 4 4 3 3 4 7 7 6 6 3 5 7 8 10 10 9 9 11 11 9 9 10 9 4 4 7 8 8 6 2 1 1 0 1 1 2 3 2 3 3 3 4 5 6 6 5 4 2 3 2 9 10 9 12 20 20 11 6 7 8 9 10 9 9 10 9 8 9
5 5 4 2 1 2 1 1 2 3 5 5 5 5 4 3 1 4 6 6 5 3 3 1 4 6 5 4 4 4 5 7 7 9 10 10 7 7 11 11 11 11 9 7 5 5 6 7 4 4 2 1 1 1 1 2 2 2 3 3 3 4 5 7 7 5 5 2 4 1 6 6 6 13 19 16 9 9 10 8 8 8 7 8 8 8 8 9
6 5 4 2 2 1 1 2 3 4 5 4 5 6 6 3 2 3 2 3 4 3 3 2 3 4 3 3 2 5 8 7 7 9 10 13 10 5 8 10 10 10 9 8 6 5 5 4 6 5 2 2 2 2 2 2 1 2 2 1 2 3 2 6 7 5 4 2 4 3 3 8 9 9 9 9 8 8 10 10 9 8 8 8 8 9 9 9
6 5 3 2 2 2 2 2 3 3 3 3 4 5 3 1 0 2 1 2 3 5 3 3 4 3 2 4 1 4 7 7 8 10 10 12 12 7 8 8 6 6 5 5 4 3 3 1 3 3 2 2 2 2 2 3 3 2 1 2 2 2 2 4 7 6 4 2 4 5 3 9 11 9 1 4 6 7 9 10 9 10 10 10 9 9 9 8
5 4 3 2 2 3 2 3 3 2 0 1 1 2 3 4 4 3 2 0 1 4 4 5 8 5 2 3 1 2 6 7 8 10 9 9 10 9 11 10 5 2 3 1 1 2 2 1 1 1 2 1 2 2 4 3 2 2 2 4 4 2 4 1 3 5 3 0 4 6 5 8 9 9 4 3 6 7 9 10 11 11 10 10 9 8 8 7
5 4 2 2 3 4 4 5 4 4 4 5 5 6 7 7 6 5 5 3 1 5 5 7 11 5 3 2 2 4 7 7 7 8 7 7 8 9 11 9 4 3 3 3 4 3 2 0 1 1 3 1 2 2 3 2 2 1 0 4 4 4 6 3 2 2 2 2 4 7 7 12 15 14 13 11 10 10 11 12 12 11 10 10 9 8 7 7
4 3 2 3 5 5 5 7 7 7 7 8 8 9 10 10 11 11 9 3 3 4 2 8 10 2 3 4 4 6 8 7 7 7 7 6 8 9 9 7 5 6 5 5 5 4 2 2 1 2 1 3 5 4 2 2 2 3 4 4 5 6 6 6 4 1 2 4 6 7 8 15 20 18 16 15 14 13 14 13 12 12 11 10 9 9 8 8
4 2 3 5 6 5 6 9 10 10 9 8 9 9 11 11 12 16 18 11 4 2 1 5 6 2 2 5 5 7 8 8 7 5 8 9 8 10 10 9 6 5 5 3 2 2 1 1 1 2 3 4 5 4 2 3 4 5 6 4 5 6 5 8 5 0 1 3 6 9 10 15 19 19 16 14 12 12 14 13 11 10 10 10 9 8 8 8
4 3 5 7 6 7 10 13 12 11 9 7 6 6 6 5 4 8 13 12 6 3 3 3 4 4 2 4 7 10 8 8 4 6 11 13 10 10 8 6 5 3 3 2 1 1 1 1 2 2 3 4 4 4 3 4 4 5 6 5 7 6 6 9 5 1 1 1 7 9 12 15 18 20 18 14 12 11 13 12 11 10 8 8 8 7 7 7
4 4 7 7 7 12 16 15 11 8 6 3 3 2 0 2 2 2 2 5 5 4 3 1 2 5 2 3 6 9 5 5 2 10 17 15 6 4 4 3 3 1 1 2 2 1 1 1 3 3 3 4 4 4 4 5 5 5 5 5 6 6 7 7 2 1 2 1 6 9 14 17 16 19 19 15 12 12 12 11 11 11 9 7 6 7 8 5
4 6 9 8 11 18 17 12 9 6 3 2 2 2 3 3 4 2 1 3 4 5 3 2 3 4 2 2 6 9 4 1 5 11 20 18 3 1 4 3 2 1 1 2 2 2 1 2 3 3 3 2 3 3 3 4 5 5 4 4 5 5 5 4 1 2 2 1 7 10 13 16 15 18 20 16 12 10 10 9 8 7 7 5 4 5 5 3
6 10 11 10 16 20 14 8 8 7 4 4 7 8 6 5 4 3 3 1 2 4 3 5 6 6 4 5 11 12 4 2 4 7 17 16 4 1 4 3 4 3 3 5 4 3 1 1 2 2 2 3 3 3 4 5 4 5 5 5 5 4 5 4 2 2 2 4 9 12 11 13 14 14 14 11 7 4 3 3 4 5 4 2 2 3 3 2
9 13 13 13 18 18 10 5 6 6 8 10 11 10 7 4 7 8 4 1 1 1 2 3 3 5 4 3 8 9 4 3 3 6 12 11 4 3 1 2 4 3 3 6 6 2 1 1 1 1 2 2 3 5 4 4 4 5 4 4 5 5 4 6 7 9 9 7 6 8 9 8 6 5 8 6 3 3 2 3 4 4 3 5 5 6 4 3
12 14 13 15 17 14 7 3 6 8 10 10 9 7 5 4 8 11 4 1 2 1 1 1 0 3 3 3 5 4 1 1 1 5 8 7 5 3 0 1 2 3 4 6 5 1 1 1 1 1 2 2 3 5 3 3 4 6 2 1 3 6 7 9 10 10 8 4 0 2 6 6 3 7 9 6 5 4 1 2 3 2 1 2 2 2 2 3
13 14 14 14 14 11 5 2 4 8 7 5 4 4 2 2 7 11 3 2 2 1 1 1 1 4 5 4 4 1 1 1 1 4 6 4 3 1 1 2 0 2 3 3 3 1 0 1 1 3 3 3 4 4 2 4 4 5 2 2 3 5 9 10 8 5 4 5 4 2 3 6 6 8 8 7 7 6 2 1 3 1 3 4 3 2 5 8
14 15 15 14 13 10 3 2 5 4 2 1 4 5 3 2 6 8 1 1 2 1 2 3 2 5 6 7 7 1 1 4 4 3 4 5 4 1 1 3 1 1 1 2 2 1 0 1 1 3 2 4 4 2 1 3 2 4 2 3 6 9 10 9 6 3 4 6 8 6 5 3 6 6 8 10 9 7 7 6 6 4 1 5 5 6 9 8
14 15 16 14 13 7 2 4 8 3 2 2 4 7 7 5 6 4 1 2 3 2 1 2 2 4 6 8 7 3 2 5 3 2 5 6 4 1 1 3 2 3 1 2 3 2 1 1 1 2 2 3 2 1 1 2 1 4 3 4 8 11 10 6 4 4 5 5 7 3 3 1 5 4 9 11 8 9 11 9 8 8 5 5 7 8 9 8
15 15 15 15 13 5 3 4 7 4 5 6 6 7 7 4 3 1 1 1 2 2 1 2 4 4 8 7 3 5 1 1 2 4 6 4 2 1 1 1 2 3 2 1 2 3 1 2 1 1 2 2 3 2 2 3 3 5 7 8 10 10 6 2 2 4 4 2 4 5 3 1 6 6 8 7 6 9 10 9 8 8 8 5 7 8 7 6
15 15 15 14 11 5 3 2 3 4 6 7 5 4 4 3 1 1 3 1 2 2 1 3 3 4 8 5 3 6 5 2 2 4 4 1 4 4 1 0 1 2 2 1 2 2 2 2 1 2 2 2 4 6 3 4 4 6 8 7 8 6 2 3 3 2 2 1 3 5 3 3 6 6 5 5 6 6 5 7 8 9 9 8 8 7 5 5
16 16 16 13 9 4 1 1 2 1 3 4 3 3 1 1 1 3 3 0 1 4 2 3 3 3 6 4 2 7 6 3 5 5 4 3 6 9 5 3 3 2 2 3 3 3 1 2 1 2 2 1 2 5 2 1 1 3 5 5 6 5 2 2 1 1 2 3 3 3 5 6 5 5 6 7 7 5 5 5 6 8 7 7 6 5 5 5
17 17 14 10 7 3 2 2 1 1 1 3 4 2 0 2 4 3 1 1 1 3 2 1 4 5 6 3 3 7 4 4 5 4 3 3 4 7 7 5 5 4 5 5 6 5 3 2 1 1 2 2 2 4 4 2 1 2 5 4 5 4 3 3 2 1 3 4 5 3 7 5 6 8 9 10 8 4 3 5 2 4 5 5 6 4 4 3
16 16 12 7 5 3 4 2 1 1 3 5 4 1 0 3 4 1 2 3 1 2 1 2 4 6 6 4 5 6 2 2 5 2 1 1 4 4 6 8 7 4 3 5 6 6 4 1 1 2 2 1 2 4 3 2 4 5 5 4 3 3 5 5 4 3 4 7 8 6 5 5 7 6 7 14 12 1 4 4 2 1 1 3 6 5 5 6
14 12 10 9 6 5 4 3 1 2 4 5 2 1 5 6 3 0 2 3 1 2 2 2 6 6 2 2 2 4 2 1 4 4 3 3 4 3 4 8 10 5 3 4 3 3 4 3 2 2 2 2 2 1 1 3 5 5 2 2 2 2 2 3 3 4 5 8 10 8 4 5 5 6 9 16 12 1 2 1 3 1 4 3 5 5 4 4
13 10 10 11 10 8 6 3 2 5 5 3 1 4 6 5 2 2 2 3 2 4 5 4 5 4 2 2 1 2 2 1 3 4 4 4 4 3 3 5 8 6 3 3 2 2 3 3 3 1 1 1 1 2 2 2 3 3 1 2 1 1 2 2 4 5 6 6 7 5 4 5 5 9 12 11 9 6 7 7 8 5 3 1 4 3 3 5
14 13 12 14 15 12 9 5 6 8 5 2 4 6 4 2 2 2 2 3 2 4 7 5 3 3 4 2 2 4 1 2 4 4 2 3 3 4 4 2 5 6 4 3 3 3 2 5 8 5 3 2 1 3 1 1 1 3 3 3 3 2 5 1 5 6 5 5 4 3 6 7 5 8 8 7 8 9 9 9 9 8 5 3 3 1 5 6
16 14 13 18 19 14 10 7 8 7 3 4 7 5 2 1 1 2 2 3 1 1 4 3 2 3 5 3 4 8 5 1 4 5 2 3 2 3 3 1 3 4 4 2 1 1 1 6 9 4 2 2 1 1 2 1 1 1 2 4 5 0 3 1 3 4 4 5 5 5 10 10 5 4 5 6 9 11 11 12 10 8 7 7 3 3 6 5
11 10 11 19 19 14 11 9 9 6 3 7 8 4 2 2 1 2 2 3 2 1 2 3 1 0 3 4 3 7 7 4 6 6 4 3 2 2 2 2 2 1 2 2 0 1 1 4 5 1 2 4 0 2 3 2 2 2 2 4 2 1 1 2 2 3 4 5 5 6 10 11 6 5 6 7 10 13 14 13 11 8 9 8 2 5 6 6
5 4 5 15 17 14 14 12 9 6 5 7 5 3 2 1 0 1 1 2 2 1 2 2 2 1 2 3 2 4 5 4 5 4 3 3 3 3 2 2 2 1 2 2 0 2 2 2 3 1 5 6 1 1 3 3 1 1 2 3 0 2 3 3 2 2 3 4 5 6 8 9 7 5 6 10 12 14 14 12 11 9 8 6 4 5 6 5
2 3 3 14 14 10 14 16 13 7 6 6 3 2 2 1 1 1 1 0 1 0 2 2 3 4 3 2 0 2 3 3 4 3 3 3 3 2 3 2 3 4 4 2 1 2 2 2 4 5 8 8 3 1 1 1 1 1 2 2 2 1 1 2 2 2 3 3 4 5 6 9 10 6 7 11 12 12 12 12 13 11 7 3 3 4 4 4
3 3 3 15 13 7 9 13 10 5 4 5 3 2 2 1 1 0 2 1 1 1 2 1 3 3 3 3 1 2 4 4 4 2 2 3 3 2 2 1 3 5 4 2 2 2 2 1 4 6 6 7 5 3 3 3 4 3 2 3 3 2 1 3 5 3 1 2 4 5 6 11 13 7 5 9 9 9 11 12 14 14 8 2 1 2 2 2
5 3 5 16 12 7 11 9 4 4 4 3 2 2 1 1 1 1 2 1 1 1 1 1 2 3 2 2 2 3 4 3 3 4 2 2 2 1 0 1 4 3 2 2 1 0 1 1 4 5 5 8 7 3 2 2 2 3 4 3 2 2 1 3 6 4 4 6 6 4 6 12 13 7 6 8 7 8 11 11 13 13 9 5 3 2 2 2
4 3 7 19 10 2 9 7 2 5 4 1 1 1 0 1 1 1 1 2 1 2 1 1 1 2 2 2 2 3 4 1 1 2 2 2 1 1 1 3 4 2 1 1 0 0 0 1 2 5 6 7 4 2 2 2 1 3 4 3 1 1 3 4 4 2 3 8 7 3 6 11 12 8 6 8 9 11 12 11 11 12 10 7 5 4 2 2
3 3 6 19 14 7 6 5 3 4 2 2 2 1 1 1 3 2 2 4 2 2 2 1 0 2 1 1 1 3 3 2 0 1 0 3 1 1 1 3 3 2 1 0 1 1 1 0 2 4 6 7 5 5 4 3 2 3 7 5 2 3 1 1 2 1 1 8 8 4 6 11 12 10 10 13 14 14 15 13 12 13 11 7 6 5 2 1
4 4 3 16 23 15 5 3 4 5 4 3 3 3 2 1 2 1 1 2 2 1 2 1 0 1 2 1 1 3 1 1 1 0 0 2 1 2 1 2 3 1 2 1 2 1 1 1 1 1 3 5 6 6 6 6 6 6 10 12 7 3 3 3 3 1 4 9 8 5 8 13 16 16 15 16 16 16 18 17 14 13 11 7 6 5 2 2
2 4 2 6 13 10 4 3 4 4 4 3 3 3 4 2 0 2 2 1 1 1 1 1 1 1 2 3 2 3 1 1 1 1 2 3 2 1 2 1 1 0 1 2 2 1 1 3 3 5 6 6 8 9 8 8 8 10 14 19 17 10 6 5 2 4 7 7 7 10 13 16 19 19 17 17 17 18 19 18 16 15 12 8 6 5 3 3
2 2 1 1 3 4 4 5 5 3 2 2 2 2 3 3 1 1 1 0 1 1 1 1 1 1 2 4 3 2 5 4 1 0 2 3 2 1 2 1 0 1 1 2 3 2 1 4 5 7 9 10 12 14 13 11 11 13 15 18 19 16 6 6 7 12 10 5 8 14 16 17 19 19 18 19 19 19 20 18 17 15 11 8 6 5 4 5
3 2 1 0 1 2 3 4 4 5 6 4 3 1 2 4 3 2 1 1 1 1 0 0 3 4 3 3 2 2 6 6 2 1 2 3 4 4 1 1 1 3 3 2 2 2 1 4 3 3 6 12 14 14 13 13 13 13 15 17 18 18 13 10 14 17 11 7 12 17 18 20 21 19 19 21 20 20 21 19 15 13 10 7 7 7 7 9
3 4 1 2 3 2 1 2 3 4 6 4 3 2 3 4 3 1 0 1 1 2 3 2 3 7 5 2 2 2 4 4 3 3 2 2 5 4 3 3 1 4 3 2 2 1 1 3 2 1 6 14 16 13 11 12 11 11 16 18 16 17 18 15 16 17 14 14 17 18 20 23 20 18 19 21 20 19 18 15 13 12 10 8 8 9 10 14
2 4 2 3 4 2 0 2 1 3 4 3 3 1 2 3 3 1 1 2 2 2 4 3 5 8 6 3 2 2 0 1 3 4 1 3 4 2 1 1 1 2 4 2 1 1 2 2 3 3 7 14 15 11 7 7 9 14 20 20 14 14 15 14 14 13 11 13 14 14 17 17 14 15 20 20 19 19 17 15 12 9 8 9 10 12 15 15
6 6 5 5 4 2 2 1 1 3 4 4 2 0 1 3 3 1 2 3 3 2 3 3 6 7 4 4 4 3 2 1 5 7 4 3 3 1 1 0 2 3 4 2 1 1 2 2 5 4 6 12 13 9 9 11 13 15 17 14 11 11 11 11 12 9 8 13 13 11 12 12 14 19 23 25 25 22 19 15 12 11 13 15 17 17 16 12
8 5 3 4 4 2 2 2 3 3 2 3 3 2 2 3 3 2 2 2 2 2 1 2 4 5 3 4 4 1 1 3 7 6 4 4 5 4 4 5 3 2 3 2 1 1 1 1 4 3 4 11 15 13 12 13 12 10 7 6 11 14 13 12 12 10 9 11 12 12 13 17 22 25 26 28 30 28 21 14 16 19 20 22 23 20 17 15
Wind_Direction
242 237 229 217 189 178 172 187 206 231 245 257 267 275 284 285 289 289 293 292 292 297 296 295 286 268 249 255 316 274 285 302 21 61 61 7 345 335 328 332 346 351 348 338 332 319 307 291 274 276 281 262 174 115 232 67 26 302 242 241 256 266 268 352 356 73 128 130 137 173 170 185 181 166 183 160 239 240 254 248 243 239 221 240 225 141 138 148
225 206 188 189 182 177 185 207 226 248 255 268 278 283 290 287 291 293 294 294 296 299 295 290 282 269 247 243 281 271 282 293 358 63 35 353 348 332 328 339 348 354 355 346 335 322 306 307 319 313 285 259 127 114 208 85 17 236 266 266 273 346 7 0 10 47 6 113 148 179 176 197 192 165 170 195 220 213 238 245 233 245 235 233 226 175 160 165
190 179 177 185 187 188 201 223 239 255 268 280 287 289 291 291 294 295 296 299 300 297 299 294 281 269 250 242 251 256 283 293 327 46 9 350 344 327 336 344 352 353 351 349 337 323 311 311 311 307 293 272 119 129 232 91 330 210 258 275 327 355 6 26 23 38 359 24 156 175 175 208 200 162 168 196 231 217 223 230 218 233 235 232 227 196 179 179
171 177 183 197 198 204 213 230 256 274 287 289 292 294 294 295 297 298 305 306 301 333 343 324 301 281 251 237 235 234 271 290 353 7 353 351 336 331 339 336 348 341 332 336 319 306 300 297 287 288 303 284 206 180 268 76 33 315 239 276 347 334 330 38 29 26 359 352 200 162 164 218 214 184 190 194 234 236 227 222 216 226 229 228 230 215 198 192
177 187 194 204 201 207 224 259 286 293 297 297 300 299 297 301 302 308 311 273 143 63 29 6 352 346 156 167 177 181 242 272 16 350 349 354 332 328 327 332 345 332 326 320 307 297 284 280 275 278 273 264 290 287 317 48 46 287 259 306 354 343 339 30 36 18 338 326 309 159 171 220 218 220 225 217 229 235 230 215 218 225 226 227 228 223 212 202
189 197 197 196 195 219 268 293 302 304 306 307 306 300 299 314 311 312 300 175 129 74 47 32 38 85 124 135 154 181 232 64 10 346 348 350 329 319 320 329 334 328 327 309 298 288 278 273 258 262 262 263 327 348 354 7 153 249 296 41 4 353 350 7 30 4 316 300 299 187 207 232 232 238 233 233 239 242 253 248 233 235 235 244 244 236 230 217
194 191 185 185 210 274 302 308 312 313 316 309 298 296 315 335 331 337 218 159 128 79 57 50 56 83 117 128 157 212 70 56 355 343 345 349 342 319 320 333 332 338 332 308 299 292 292 280 261 273 281 276 313 356 352 321 266 248 281 39 4 354 2 11 21 356 337 317 328 0 330 266 247 253 247 243 244 244 252 261 273 284 275 272 272 260 257 253
183 176 176 197 279 307 312 318 320 318 316 289 253 223 9 21 4 14 139 160 125 87 71 59 54 57 93 147 244 135 67 10 335 340 342 350 358 340 336 348 339 338 314 296 303 315 315 284 273 290 262 260 277 30 356 319 324 306 325 20 306 325 21 31 23 24 358 300 328 341 300 267 261 276 270 255 250 244 242 248 252 254 252 247 251 251 250 258
169 169 198 262 299 309 319 326 325 320 308 245 212 197 209 8 335 318 212 182 151 110 76 36 28 345 273 256 268 153 41 342 333 339 345 352 4 8 3 357 336 317 298 292 295 296 297 289 294 321 20 58 340 354 352 321 28 3 349 336 293 326 13 5 301 82 1 282 326 301 274 267 268 278 271 257 249 251 244 239 242 240 239 232 230 236 236 239
173 197 241 262 258 299 332 330 328 317 256 217 210 216 241 6 342 315 234 196 189 153 66 2 290 289 272 251 253 179 18 351 348 345 352 356 359 8 4 354 336 319 312 328 323 302 306 334 353 22 47 76 54 0 339 295 284 335 335 332 335 333 317 291 286 264 201 274 258 274 275 271 269 262 266 256 235 240 238 235 236 233 237 234 228 227 227 233
198 220 220 200 201 335 334 334 333 243 208 214 217 235 251 24 24 39 103 176 195 188 102 70 301 310 306 289 197 85 18 352 352 351 356 1 5 10 2 356 349 337 331 2 22 350 357 1 353 18 7 102 90 62 30 298 257 259 220 274 264 260 269 223 247 236 198 260 215 253 275 267 264 242 251 254 242 235 229 230 230 228 233 233 233 228 221 228
212 207 194 190 269 326 326 348 80 180 199 213 223 250 263 327 47 72 83 96 121 147 128 62 11 334 341 46 53 20 352 343 345 353 353 358 15 24 19 15 12 0 347 18 44 5 9 355 346 45 20 305 110 83 95 252 255 240 244 274 233 227 256 225 222 211 196 217 149 246 285 260 230 223 241 250 246 237 232 233 232 229 230 229 234 232 228 227
207 197 192 199 307 311 308 151 162 180 201 216 233 259 292 300 222 107 76 61 63 120 151 20 349 324 330 53 41 356 9 4 354 356 353 354 10 34 35 31 32 29 22 44 45 11 18 1 24 81 17 347 90 100 197 242 253 254 240 265 271 264 256 212 207 201 191 184 137 150 300 272 238 232 240 246 230 213 222 230 232 233 231 228 228 227 232 232
199 195 197 228 299 266 185 180 180 187 202 221 255 277 297 304 236 246 294 9 35 89 114 36 334 323 23 76 33 21 29 18 11 7 355 354 355 13 33 26 29 37 42 55 51 43 53 56 96 96 3 31 92 143 204 206 203 265 251 237 252 284 281 177 180 185 172 175 153 136 275 273 287 278 241 224 211 203 214 223 225 230 230 227 224 221 226 228
198 199 211 259 279 218 199 190 177 183 206 253 282 299 288 215 230 258 238 57 63 73 68 20 333 307 90 91 46 8 9 5 10 3 348 348 349 349 1 353 356 19 32 49 45 37 43 91 136 109 60 76 117 159 229 209 202 242 284 306 256 233 272 174 173 189 183 197 167 150 269 272 279 291 269 160 196 206 217 224 223 229 229 226 224 217 219 221
202 206 235 278 236 196 177 160 158 177 195 341 343 39 117 122 83 86 79 0 101 46 12 343 338 327 98 75 15 348 2 8 0 347 336 337 341 337 332 316 289 329 9 26 325 314 330 327 332 59 141 197 209 231 267 237 219 206 198 294 300 301 313 236 182 214 211 234 184 191 258 284 276 279 286 203 207 212 222 230 229 233 234 232 232 221 215 217
207 222 262 260 193 174 151 144 142 146 111 78 77 80 103 100 68 48 13 330 81 37 29 2 348 353 85 37 349 356 360 359 346 341 341 328 322 323 326 319 300 309 288 247 245 249 259 58 24 273 202 246 333 300 301 311 309 324 285 301 310 332 333 307 261 259 206 178 216 221 240 265 271 275 276 259 242 235 236 239 237 238 239 236 236 230 225 221
213 238 247 187 175 162 146 140 132 129 112 90 90 94 100 88 65 49 29 1 297 327 37 10 355 47 72 16 356 353 349 335 326 338 347 328 311 312 314 307 304 304 285 255 233 221 237 180 185 249 210 30 11 5 2 343 314 325 328 324 322 328 318 288 284 275 199 197 233 249 251 265 272 274 271 262 251 246 246 245 240 236 236 235 232 228 230 229
211 226 187 173 168 156 146 140 130 125 119 109 107 110 114 102 74 54 43 45 14 328 95 352 355 125 58 14 352 329 321 304 308 342 353 346 326 315 301 278 275 284 283 282 228 201 269 245 227 313 3 15 11 23 16 325 317 311 308 302 291 298 294 285 290 168 235 255 251 257 260 268 276 278 273 268 259 253 255 254 250 242 231 230 232 229 229 231
202 197 174 171 164 145 136 131 125 122 122 121 121 122 129 124 71 43 36 46 53 51 84 352 16 88 63 6 347 335 311 273 296 30 7 349 326 317 308 268 259 261 267 302 295 15 23 27 43 22 354 353 0 6 342 317 313 302 301 289 278 282 282 286 297 125 102 298 255 261 272 271 276 280 278 277 273 264 261 261 262 257 242 228 227 234 237 233
198 184 171 169 154 138 131 124 112 108 112 130 177 202 300 2 47 69 28 63 55 12 48 54 44 91 71 333 344 348 322 241 32 32 8 354 321 303 326 254 255 247 218 262 262 332 43 52 40 37 8 358 349 342 325 306 299 294 292 289 289 282 278 292 325 193 138 107 264 272 282 278 278 281 282 285 280 268 261 258 258 259 254 230 211 233 238 229
186 174 169 165 149 140 133 111 74 63 79 133 148 92 57 72 93 93 299 93 61 344 2 39 41 82 83 16 1 344 329 310 24 22 3 354 335 255 335 308 322 16 14 313 276 304 58 75 37 35 26 345 291 282 280 284 285 283 278 279 289 288 294 307 150 191 141 129 281 288 288 285 283 280 282 282 271 260 255 254 265 275 272 242 211 240 228 195
171 166 166 161 152 149 142 96 41 31 64 111 106 96 101 101 80 25 315 119 71 329 2 31 28 33 20 25 6 348 3 32 345 5 357 348 337 304 333 337 345 359 14 7 354 346 41 78 53 57 17 324 291 259 262 283 277 262 261 260 275 321 350 310 264 307 277 241 275 291 294 287 283 279 279 278 273 279 284 297 333 344 340 346 21 358 17 58
164 163 164 161 158 162 157 89 28 41 94 114 112 111 120 92 30 7 333 184 69 348 25 17 18 29 11 359 350 345 34 42 325 345 350 349 339 300 332 10 339 347 21 4 346 346 96 83 65 117 236 292 326 304 302 318 305 281 260 247 279 326 331 281 298 316 294 267 270 296 304 283 280 316 309 306 336 344 2 16 343 328 355 19 20 3 358 20
161 163 163 161 165 171 161 69 45 83 102 107 114 119 110 76 22 13 0 188 57 49 45 8 220 24 352 312 342 343 10 12 352 341 343 357 344 302 315 354 309 350 1 354 342 321 113 66 315 258 248 292 310 302 340 33 323 306 299 329 322 321 299 285 308 322 313 313 266 14 330 292 345 0 318 314 341 328 44 29 296 264 99 38 11 295 315 37
159 162 161 161 168 172 158 82 88 99 95 96 139 168 114 54 17 16 357 205 51 7 345 22 224 349 354 339 343 40 151 308 308 331 342 5 345 273 342 326 170 10 342 353 0 261 135 72 283 290 300 308 290 283 18 68 349 310 289 349 325 297 286 291 315 329 313 310 291 289 285 283 331 334 310 330 332 320 37 21 307 91 138 158 155 96 54 46
159 161 162 161 163 163 142 142 153 130 69 124 203 220 232 295 351 3 345 144 49 332 338 6 323 338 352 331 324 59 149 301 301 341 5 4 344 230 332 358 17 338 341 16 3 283 189 127 255 285 285 296 299 295 14 75 358 292 258 312 306 288 282 293 320 305 277 300 294 263 206 257 308 304 323 340 329 341 25 19 0 8 80 127 110 77 71 62
161 162 162 161 160 153 62 146 167 188 336 308 254 244 244 278 330 340 94 92 359 321 328 339 321 339 339 320 331 65 169 291 325 7 347 348 345 263 331 12 322 295 350 39 352 324 323 135 240 312 302 299 325 14 64 81 265 262 272 295 285 276 278 296 309 273 277 306 308 299 141 235 282 291 335 338 340 359 359 348 353 348 349 82 98 87 82 75
159 162 160 159 158 131 62 151 176 218 279 301 291 258 250 289 332 307 112 98 321 333 193 332 340 338 332 318 0 47 18 327 15 311 313 339 13 32 41 15 305 305 335 84 296 303 12 72 69 27 339 314 333 309 178 162 240 278 299 292 277 269 262 258 258 275 296 289 312 348 68 281 287 303 329 340 354 346 332 328 341 338 337 24 71 73 73 70
156 158 155 154 153 122 78 129 169 228 264 294 301 277 267 294 330 57 46 14 318 335 290 14 348 300 334 348 49 15 359 24 356 308 312 14 28 21 61 178 308 309 323 331 296 282 112 66 14 45 354 313 312 294 238 199 255 317 319 294 289 288 178 152 213 246 323 331 303 327 4 327 308 311 321 337 336 332 337 338 338 339 346 18 43 50 60 58
152 153 153 152 153 147 104 76 58 236 264 297 301 312 315 298 14 66 60 188 299 342 339 359 333 313 355 16 27 349 348 343 343 3 8 7 20 15 24 20 343 342 356 348 320 312 63 44 23 39 350 345 298 298 340 13 266 338 311 293 318 326 102 123 220 172 4 333 254 282 339 328 296 297 310 314 325 3 14 332 330 341 350 16 21 20 40 34
149 153 152 148 158 155 77 93 52 348 265 301 310 318 323 40 38 50 3 298 304 349 359 315 321 340 343 345 351 341 343 336 343 37 21 4 42 23 30 29 349 356 2 345 333 328 343 19 67 50 344 36 332 311 0 11 325 333 311 329 350 340 3 349 333 14 338 298 253 291 355 328 268 276 295 308 324 25 0 290 301 357 352 352 337 343 359 332
146 155 147 127 145 130 67 74 51 313 291 317 328 322 46 57 52 45 325 347 325 301 286 246 293 312 312 328 354 338 317 322 336 4 340 49 77 42 51 44 15 10 326 323 340 338 341 353 29 16 334 26 10 345 3 333 319 335 339 359 355 353 1 337 326 336 311 292 291 319 347 301 273 278 310 320 315 230 196 233 162 74 358 308 289 290 297 291
139 153 137 105 98 93 57 43 25 301 313 325 313 18 51 67 71 58 342 355 345 295 287 289 304 302 323 31 6 344 354 304 335 349 342 28 55 26 41 36 22 14 284 312 358 355 355 338 346 29 323 314 25 63 216 278 301 303 310 356 340 33 25 299 312 330 304 297 306 320 318 275 282 307 321 320 314 255 206 326 63 240 222 237 272 271 289 310
131 129 109 80 58 43 27 14 323 314 322 326 19 45 56 74 42 13 6 329 328 328 319 321 314 314 24 59 184 21 31 283 344 11 15 27 38 14 22 21 12 8 334 343 0 352 1 305 290 39 55 331 54 175 224 300 305 282 309 25 345 110 140 238 273 276 274 288 297 303 279 256 283 303 304 313 329 340 321 347 12 321 265 8 318 310 7 17
117 97 75 48 30 14 2 349 324 321 317 334 67 58 58 83 6 2 2 322 322 323 315 322 348 0 5 342 333 2 21 210 334 358 54 64 50 32 52 25 355 16 30 8 332 349 5 289 303 339 27 58 152 208 257 37 340 305 353 354 293 187 145 205 284 275 276 285 287 296 286 290 319 303 294 315 327 324 321 338 343 313 306 328 300 0 45 23
97 83 58 29 16 3 356 354 339 336 357 58 76 73 39 69 0 332 345 332 317 294 312 340 29 9 348 345 347 344 334 302 343 345 20 57 35 15 42 53 359 20 31 20 339 24 0 287 299 316 312 296 257 287 295 155 125 342 322 308 303 330 112 123 273 290 311 291 291 305 293 298 317 298 302 322 315 316 327 329 318 305 311 303 273 82 44 9
94 88 54 18 9 9 10 7 354 349 54 70 78 85 38 39 347 334 354 327 274 250 348 12 47 47 352 352 332 333 344 356 347 347 12 29 13 13 35 28 29 44 349 346 296 350 358 295 289 212 268 290 296 26 324 265 167 161 256 290 316 52 319 287 281 303 310 290 284 295 295 294 277 260 297 314 313 319 321 317 309 311 322 321 0 51 18 0
85 107 46 4 7 27 32 33 28 26 67 68 71 85 57 57 46 354 3 315 254 273 13 13 354 27 23 358 315 330 2 3 335 347 21 9 359 38 57 351 337 331 326 349 315 311 350 307 279 309 336 324 312 57 341 318 298 15 322 306 67 149 231 273 316 291 272 274 280 294 301 291 265 262 306 310 312 314 310 310 311 313 329 352 27 22 359 357
37 114 21 352 360 20 35 51 55 44 59 63 69 72 45 91 173 180 149 314 249 269 28 355 344 3 0 354 58 346 350 332 324 350 20 5 359 35 52 33 330 315 317 352 70 314 321 277 275 309 336 336 318 238 338 311 270 323 325 278 277 277 231 287 293 214 230 269 281 293 292 278 276 297 314 300 300 302 304 317 317 312 322 7 28 4 350 345
21 99 351 349 359 8 34 54 48 31 63 63 66 66 42 206 274 161 157 168 270 165 106 57 14 13 343 342 9 353 338 314 321 359 25 23 28 18 47 65 312 315 322 2 61 348 342 285 282 307 326 319 295 232 201 203 200 205 230 242 268 295 344 312 289 255 247 263 261 278 282 276 280 297 301 286 291 303 311 319 313 307 308 310 3 354 326 329
43 99 336 347 3 44 58 61 19 18 72 65 60 86 84 212 285 318 169 177 250 227 141 80 23 12 12 3 340 342 353 326 333 4 8 11 29 16 1 295 288 289 305 342 33 338 352 256 274 284 272 279 286 256 232 270 249 232 228 222 296 327 156 233 272 284 296 283 272 269 265 269 278 291 292 282 290 302 304 305 302 301 304 301 302 295 274 322
49 118 358 356 354 84 68 69 33 34 70 129 160 119 0 354 342 328 13 32 348 296 352 53 17 24 53 36 325 329 1 0 315 358 345 331 346 188 301 318 302 280 273 327 40 349 346 201 287 292 274 274 290 314 304 305 343 305 266 229 218 248 187 213 250 283 291 279 273 259 256 268 280 292 290 290 299 302 299 299 301 302 299 295 298 296 288 316
76 122 19 20 43 100 85 77 108 80 90 173 149 98 57 42 32 23 19 23 12 340 6 24 9 14 8 33 274 300 343 20 351 102 321 303 279 158 321 327 326 347 29 2 338 343 338 93 339 325 315 320 334 342 325 313 337 312 289 281 210 173 135 310 286 90 255 263 252 236 256 268 281 295 300 301 302 300 300 301 302 301 293 283 284 281 268 306
84 79 12 26 45 65 75 81 117 120 125 132 106 59 42 77 46 0 333 13 5 315 358 354 161 340 294 248 218 271 283 148 262 1 189 287 320 130 187 297 310 10 67 348 308 328 281 267 315 340 314 318 315 312 314 315 319 309 299 300 292 240 206 240 285 236 237 258 253 241 257 267 282 295 300 301 301 300 301 302 302 300 291 284 282 267 237 283
77 50 11 18 36 48 56 47 71 108 130 120 89 26 21 53 73 238 231 20 9 307 310 273 201 211 299 334 330 291 293 175 205 357 332 297 322 128 177 220 331 32 56 304 271 256 290 264 223 205 221 250 267 274 289 306 302 294 293 292 292 282 225 194 257 249 240 267 269 256 264 273 283 293 298 300 301 300 299 299 300 299 290 283 282 271 251 264
85 69 19 70 47 37 42 32 29 54 82 90 88 29 25 47 41 241 205 188 64 54 264 259 31 29 338 346 347 311 329 328 208 35 312 278 298 313 189 159 222 210 203 244 219 182 317 282 239 212 225 246 260 270 284 294 283 278 281 281 285 289 255 183 224 248 251 285 274 263 272 279 284 293 300 301 300 299 299 297 294 294 291 286 296 312 316 311
69 116 275 68 76 19 30 18 12 48 55 59 103 93 33 47 45 19 321 258 167 78 1 48 36 27 5 335 318 314 334 334 302 308 322 306 327 332 288 257 188 173 179 207 196 153 303 277 251 199 239 258 265 269 273 273 269 267 266 267 274 282 271 236 241 252 251 249 258 266 274 276 282 293 297 296 296 295 295 293 288 287 291 300 322 335 334 327
71 101 8 18 76 97 56 330 329 54 61 58 89 73 31 48 60 60 269 315 336 28 19 6 356 355 347 315 304 312 336 349 324 307 350 347 325 317 298 307 217 178 196 218 209 163 191 260 268 258 271 276 278 275 259 252 262 272 270 268 269 272 273 265 260 261 255 247 253 264 272 274 280 290 291 291 294 294 291 289 291 297 308 331 345 340 329 320
115 125 120 77 84 89 314 289 319 58 54 43 66 47 358 55 66 78 80 29 6 12 13 355 326 326 311 262 268 270 247 36 278 263 297 342 314 292 256 291 264 249 260 238 220 194 168 267 324 331 296 290 287 283 266 257 275 285 282 280 277 274 277 277 274 273 271 267 266 267 271 275 283 290 293 296 298 298 297 296 301 314 335 347 339 324 317 314
96 117 134 115 88 12 321 303 16 51 36 24 45 35 355 51 52 11 26 37 33 20 0 328 312 314 288 227 242 236 152 144 243 252 269 277 272 280 240 261 27 335 303 268 201 212 191 283 332 352 314 294 294 309 321 311 301 290 280 279 289 294 292 288 288 289 286 289 296 298 293 304 321 323 323 323 319 313 310 316 335 351 354 348 338 328 327 334
93 103 124 107 90 29 351 348 7 56 63 22 36 48 43 62 54 14 28 45 45 51 20 296 295 304 281 258 275 300 64 263 258 271 290 266 268 287 280 278 284 273 280 281 203 187 165 291 326 349 308 289 300 322 330 320 312 295 276 301 320 313 304 298 297 300 303 310 323 334 341 347 350 354 353 347 340 336 334 350 9 4 359 357 351 344 345 347